Regional Weather Roundup
Issued by NWS Charleston, WV

Home | Current Version | Previous Version | Graphics & Text | Print | Product List | Glossary On
Versions: 1 2 3 4 5 6 7 8 9 10 11 12 13 14 15 16 17 18 19 20 21 22 23 24 25 26 27 28 29 30 31 32 33 34 35 36 37 38 39 40 41 42 43 44 45 46 47 48 49 50
000
ASUS41 KRLX 041510
RWRRLX
West Virginia Regional Weather Roundup
National Weather Service Charleston WV
1000 AM EST WED MAR 04 2015

Note: "fair" indicates few or no clouds below 12,000 feet with no
significant weather and/or obstructions to visibility.

WVZ003-041600-
Northern Panhandle of West Virginia

CITY           SKY/WX    TMP DP  RH WIND       PRES   REMARKS
WHEELING       CLOUDY    35  34  96 W6        29.91S FOG
$$

WVZ009-041600-
Northwest West Virginia

CITY           SKY/WX    TMP DP  RH WIND       PRES   REMARKS
PARKERSBURG    LGT RAIN  38  37  97 CALM      29.96S FOG
$$

WVZ006-041600-
Western West Virginia

CITY           SKY/WX    TMP DP  RH WIND       PRES   REMARKS
HUNTINGTON     RAIN      44  44 100 NW6       29.92S VSB 1/2
$$

WVZ015-041600-
West Central West Virginia

CITY           SKY/WX    TMP DP  RH WIND       PRES   REMARKS
CHARLESTON     LGT RAIN  50  47  89 SW3       29.90F
$$

WVZ022-031-041600-
North Central West Virginia

CITY           SKY/WX    TMP DP  RH WIND       PRES   REMARKS
CLARKSBURG     RAIN      44  43  96 SW3       29.90F FOG
MORGANTOWN     LGT RAIN  43  40  89 CALM      29.89F FOG
$$

WVZ025-035-042-045-041600-
Southern West Virginia

CITY           SKY/WX    TMP DP  RH WIND       PRES   REMARKS
BECKLEY        LGT RAIN  45  45 100 CALM      29.94F
LOGAN          CLOUDY    48  48 100 S7        29.89F FOG
BLUEFIELD      LGT RAIN  49  44  83 NW5       29.98S
LEWISBURG      FOG       44  42  95 S3        29.95F VSB<1/4
$$

WVZ047-041600-
Northern Mountains of West Virginia

CITY           SKY/WX    TMP DP  RH WIND       PRES   REMARKS
ELKINS         LGT RAIN  46 N/A N/A S7        29.92F
$$

WVZ052-041600-
Eastern Panhandle of West Virginia

CITY           SKY/WX    TMP DP  RH WIND       PRES   REMARKS
MARTINSBURG    CLOUDY    43  37  79 CALM      29.89F HAZE
PETERSBURG     CLOUDY    57  38  50 W12       29.90F
$$



USA.gov is the U.S. government's official web portal to all federal, state and local government web resources and services.